Time,TemperatureF,DewpointF,PressureIn,WindDirection,WindDirectionDegrees,WindSpeedMPH,WindSpeedGustMPH,Humidity,HourlyPrecipIn,Conditions,Clouds,dailyrainin,SoftwareType,DateUTC
2013-03-21 00:04:00,50.2,48.2,30.14,NW,311,1.0,8.0,93,0.00,,,0.15,meteohub,2013-03-21 07:04:00,
2013-03-21 00:09:00,50.2,48.2,30.14,WSW,243,1.0,9.0,93,0.00,,,0.00,meteohub,2013-03-21 07:09:00,
2013-03-21 00:14:00,50.2,48.2,30.14,WNW,284,1.0,9.0,93,0.00,,,0.00,meteohub,2013-03-21 07:14:00,
2013-03-21 00:19:00,49.8,47.8,30.14,NNE,22,3.0,9.0,93,0.00,,,0.00,meteohub,2013-03-21 07:19:00,
2013-03-21 00:24:00,49.6,47.5,30.14,WNW,290,1.0,8.0,92,0.00,,,0.00,meteohub,2013-03-21 07:24:00,
2013-03-21 00:29:00,49.5,47.3,30.14,NNW,347,4.0,5.0,92,0.00,,,0.00,meteohub,2013-03-21 07:29:00,
2013-03-21 00:34:00,49.3,46.8,30.14,NNE,27,0.0,5.0,91,0.00,,,0.00,meteohub,2013-03-21 07:34:00,
2013-03-21 00:40:00,49.1,46.6,30.14,NW,319,2.0,6.0,91,0.00,,,0.00,meteohub,2013-03-21 07:40:00,
2013-03-21 00:45:00,48.9,46.4,30.14,West,271,8.0,8.0,91,0.00,,,0.00,meteohub,2013-03-21 07:45:00,
2013-03-21 00:50:00,48.7,45.9,30.13,NNW,328,4.0,10.0,90,0.00,,,0.00,meteohub,2013-03-21 07:50:00,
2013-03-21 00:56:00,48.7,46.2,30.13,NNE,20,2.0,10.0,91,0.00,,,0.00,meteohub,2013-03-21 07:56:00,
2013-03-21 01:01:00,48.6,45.7,30.13,NNW,340,1.0,12.0,90,0.00,,,0.00,meteohub,2013-03-21 08:01:00,
2013-03-21 01:06:00,48.6,46.0,30.13,NNE,22,5.0,12.0,91,0.00,,,0.00,meteohub,2013-03-21 08:06:00,
2013-03-21 01:12:00,48.6,46.0,30.13,North,6,1.0,12.0,91,0.00,,,0.00,meteohub,2013-03-21 08:12:00,
2013-03-21 01:17:00,48.4,45.9,30.13,NNW,329,5.0,9.0,91,0.00,,,0.00,meteohub,2013-03-21 08:17:00,
2013-03-21 01:22:00,48.4,45.9,30.13,NNW,340,3.0,12.0,91,0.00,,,0.00,meteohub,2013-03-21 08:22:00,
2013-03-21 01:27:00,48.4,45.9,30.12,NNE,22,3.0,12.0,91,0.00,,,0.00,meteohub,2013-03-21 08:27:00,
2013-03-21 01:32:00,48.4,45.9,30.12,NNW,328,7.0,12.0,91,0.00,,,0.00,meteohub,2013-03-21 08:32:00,
2013-03-21 01:37:00,48.2,45.7,30.12,NNW,328,3.0,9.0,91,0.00,,,0.00,meteohub,2013-03-21 08:37:00,
2013-03-21 01:42:00,48.0,45.5,30.12,NNE,13,3.0,9.0,91,0.00,,,0.00,meteohub,2013-03-21 08:42:00,
2013-03-21 01:47:00,48.2,45.7,30.12,NNW,340,0.0,8.0,91,0.00,,,0.00,meteohub,2013-03-21 08:47:00,
2013-03-21 01:52:00,48.2,45.7,30.12,NNE,12,3.0,6.0,91,0.00,,,0.00,meteohub,2013-03-21 08:52:00,
2013-03-21 01:57:00,48.2,45.7,30.13,North,11,2.0,7.0,91,0.00,,,0.00,meteohub,2013-03-21 08:57:00,
2013-03-21 02:02:00,48.0,45.1,30.12,NNW,342,2.0,7.0,90,0.00,,,0.00,meteohub,2013-03-21 09:02:00,
2013-03-21 02:07:00,48.0,45.1,30.12,NNW,338,1.0,7.0,90,0.00,,,0.00,meteohub,2013-03-21 09:07:00,
2013-03-21 02:12:00,47.8,45.0,30.12,NNW,330,1.0,4.0,90,0.00,,,0.00,meteohub,2013-03-21 09:12:00,
2013-03-21 02:17:00,48.0,45.1,30.12,North,358,5.0,5.0,90,0.00,,,0.00,meteohub,2013-03-21 09:17:00,
2013-03-21 02:22:00,48.0,45.0,30.12,NW,308,3.0,8.0,89,0.00,,,0.00,meteohub,2013-03-21 09:22:00,
2013-03-21 02:28:00,48.0,45.0,30.12,North,6,3.0,8.0,89,0.00,,,0.00,meteohub,2013-03-21 09:28:00,
2013-03-21 02:33:00,48.0,44.6,30.12,North,352,3.0,8.0,88,0.00,,,0.00,meteohub,2013-03-21 09:33:00,
2013-03-21 02:38:00,47.8,44.4,30.12,North,0,5.0,7.0,88,0.00,,,0.00,meteohub,2013-03-21 09:38:00,
2013-03-21 02:43:00,47.8,44.2,30.12,North,350,2.0,5.0,87,0.00,,,0.00,meteohub,2013-03-21 09:43:00,
2013-03-21 02:48:00,47.8,43.9,30.12,NNW,342,5.0,8.0,86,0.00,,,0.00,meteohub,2013-03-21 09:48:00,
2013-03-21 02:53:00,47.8,43.5,30.12,NNW,348,3.0,9.0,85,0.00,,,0.00,meteohub,2013-03-21 09:53:00,
2013-03-21 02:58:00,47.7,43.3,30.12,North,11,5.0,9.0,85,0.00,,,0.00,meteohub,2013-03-21 09:58:00,
2013-03-21 03:03:00,47.7,43.3,30.12,NNW,334,2.0,9.0,85,0.00,,,0.00,meteohub,2013-03-21 10:03:00,
2013-03-21 03:08:00,47.5,42.8,30.13,NNW,344,1.0,7.0,84,0.00,,,0.00,meteohub,2013-03-21 10:08:00,
2013-03-21 03:13:00,47.3,42.8,30.13,North,1,0.0,6.0,84,0.00,,,0.00,meteohub,2013-03-21 10:13:00,
2013-03-21 03:19:00,47.1,42.6,30.13,NNE,27,4.0,6.0,84,0.00,,,0.00,meteohub,2013-03-21 10:19:00,
2013-03-21 03:24:00,47.1,42.3,30.13,NNW,340,2.0,6.0,83,0.00,,,0.00,meteohub,2013-03-21 10:24:00,
2013-03-21 03:29:00,46.9,42.1,30.12,North,0,2.0,6.0,83,0.00,,,0.00,meteohub,2013-03-21 10:29:00,
2013-03-21 03:34:00,46.8,42.3,30.12,NNE,12,1.0,6.0,84,0.00,,,0.00,meteohub,2013-03-21 10:34:00,
2013-03-21 03:39:00,46.6,42.1,30.12,WNW,298,1.0,6.0,84,0.00,,,0.00,meteohub,2013-03-21 10:39:00,
2013-03-21 03:45:00,46.4,42.1,30.12,NNE,18,0.0,4.0,85,0.00,,,0.00,meteohub,2013-03-21 10:45:00,
2013-03-21 03:50:00,46.4,42.1,30.12,NNW,342,0.0,3.0,85,0.00,,,0.00,meteohub,2013-03-21 10:50:00,
2013-03-21 03:52:00,46.4,42.1,30.12,North,356,0.0,6.0,85,0.00,,,0.00,meteohub,2013-03-21 10:52:00,
2013-03-21 03:57:00,46.6,42.3,30.12,NNW,334,0.0,6.0,85,0.00,,,0.00,meteohub,2013-03-21 10:57:00,
2013-03-21 04:02:00,46.6,42.3,30.12,WNW,290,0.0,6.0,85,0.00,,,0.00,meteohub,2013-03-21 11:02:00,
2013-03-21 04:07:00,46.6,42.3,30.12,NW,318,0.0,3.0,85,0.00,,,0.00,meteohub,2013-03-21 11:07:00,
2013-03-21 04:12:00,46.6,42.3,30.12,SSE,157,1.0,3.0,85,0.00,,,0.00,meteohub,2013-03-21 11:12:00,
2013-03-21 04:17:00,46.2,42.3,30.12,SSE,157,0.0,2.0,86,0.00,,,0.00,meteohub,2013-03-21 11:17:00,
2013-03-21 04:22:00,46.2,42.3,30.13,SSE,156,0.0,1.0,86,0.00,,,0.00,meteohub,2013-03-21 11:22:00,
2013-03-21 04:28:00,46.2,42.3,30.12,SSE,157,1.0,1.0,86,0.00,,,0.00,meteohub,2013-03-21 11:28:00,
2013-03-21 04:33:00,46.0,42.1,30.12,SSE,167,0.0,1.0,86,0.00,,,0.00,meteohub,2013-03-21 11:33:00,
2013-03-21 04:39:00,45.7,42.1,30.12,ESE,115,2.0,2.0,87,0.00,,,0.00,meteohub,2013-03-21 11:39:00,
2013-03-21 04:44:00,45.9,41.9,30.12,SE,143,0.0,3.0,86,0.00,,,0.00,meteohub,2013-03-21 11:44:00,
2013-03-21 04:49:00,46.0,42.1,30.12,East,94,2.0,4.0,86,0.00,,,0.00,meteohub,2013-03-21 11:49:00,
2013-03-21 04:54:00,46.2,42.3,30.12,NNE,29,1.0,6.0,86,0.00,,,0.00,meteohub,2013-03-21 11:54:00,
2013-03-21 05:00:00,46.0,41.7,30.12,ENE,71,3.0,7.0,85,0.00,,,0.00,meteohub,2013-03-21 12:00:00,
2013-03-21 05:05:00,45.9,41.4,30.12,ESE,122,2.0,7.0,84,0.00,,,0.00,meteohub,2013-03-21 12:05:00,
2013-03-21 05:10:00,45.9,41.0,30.12,NNE,12,2.0,5.0,83,0.00,,,0.00,meteohub,2013-03-21 12:10:00,
2013-03-21 05:15:00,46.0,40.8,30.12,NNE,33,1.0,6.0,82,0.00,,,0.00,meteohub,2013-03-21 12:15:00,
2013-03-21 05:21:00,45.9,40.6,30.11,NNE,33,0.0,6.0,82,0.00,,,0.00,meteohub,2013-03-21 12:21:00,
2013-03-21 05:26:00,45.7,41.2,30.11,NNE,33,0.0,4.0,84,0.00,,,0.00,meteohub,2013-03-21 12:26:00,
2013-03-21 05:31:00,45.3,40.8,30.11,NNE,33,0.0,1.0,84,0.00,,,0.00,meteohub,2013-03-21 12:31:00,
2013-03-21 05:36:00,45.5,41.5,30.11,NNW,333,0.0,4.0,86,0.00,,,0.00,meteohub,2013-03-21 12:36:00,
2013-03-21 05:41:00,45.9,41.9,30.11,NE,41,1.0,5.0,86,0.00,,,0.00,meteohub,2013-03-21 12:41:00,
2013-03-21 05:47:00,46.0,42.1,30.10,North,355,0.0,5.0,86,0.00,,,0.00,meteohub,2013-03-21 12:47:00,
2013-03-21 05:52:00,46.0,41.7,30.10,NNE,13,3.0,5.0,85,0.00,,,0.00,meteohub,2013-03-21 12:52:00,
2013-03-21 05:57:00,46.2,41.9,30.10,NNW,347,1.0,5.0,85,0.00,,,0.00,meteohub,2013-03-21 12:57:00,
2013-03-21 06:02:00,46.4,42.1,30.10,NW,306,2.0,6.0,85,0.00,,,0.00,meteohub,2013-03-21 13:02:00,
2013-03-21 06:07:00,46.4,42.1,30.10,NNW,346,0.0,6.0,85,0.00,,,0.00,meteohub,2013-03-21 13:07:00,
2013-03-21 06:12:00,46.0,41.7,30.10,North,356,0.0,6.0,85,0.00,,,0.00,meteohub,2013-03-21 13:12:00,
2013-03-21 06:17:00,45.0,40.6,30.11,NNW,340,1.0,3.0,85,0.00,,,0.00,meteohub,2013-03-21 13:17:00,
2013-03-21 06:23:00,44.1,41.0,30.12,NNW,328,0.0,3.0,89,0.00,,,0.00,meteohub,2013-03-21 13:23:00,
2013-03-21 06:28:00,43.9,40.8,30.12,NNW,330,0.0,3.0,89,0.00,,,0.00,meteohub,2013-03-21 13:28:00,
2013-03-21 06:33:00,43.5,40.8,30.12,NNW,328,0.0,3.0,90,0.00,,,0.00,meteohub,2013-03-21 13:33:00,
2013-03-21 06:38:00,43.5,40.8,30.12,NNW,330,0.0,1.0,90,0.00,,,0.00,meteohub,2013-03-21 13:38:00,
2013-03-21 06:44:00,43.3,40.6,30.12,NNW,330,0.0,1.0,90,0.00,,,0.00,meteohub,2013-03-21 13:44:00,
2013-03-21 06:49:00,43.2,40.6,30.12,NNW,330,0.0,1.0,91,0.00,,,0.00,meteohub,2013-03-21 13:49:00,
2013-03-21 06:54:00,43.0,40.5,30.11,NNW,330,0.0,1.0,91,0.00,,,0.00,meteohub,2013-03-21 13:54:00,
2013-03-21 07:00:00,42.6,40.1,30.12,NNW,330,0.0,1.0,91,0.00,,,0.00,meteohub,2013-03-21 14:00:00,
2013-03-21 07:05:00,42.6,40.5,30.12,NNW,330,0.0,1.0,92,0.00,,,0.00,meteohub,2013-03-21 14:05:00,
2013-03-21 07:10:00,42.6,40.5,30.12,NNW,330,0.0,1.0,92,0.00,,,0.00,meteohub,2013-03-21 14:10:00,
2013-03-21 07:15:00,42.4,40.3,30.12,WNW,302,0.0,1.0,92,0.00,,,0.00,meteohub,2013-03-21 14:15:00,
2013-03-21 07:21:00,42.4,40.3,30.12,NW,318,0.0,1.0,92,0.00,,,0.00,meteohub,2013-03-21 14:21:00,
2013-03-21 07:26:00,42.4,40.3,30.11,NW,318,0.0,1.0,92,0.00,,,0.00,meteohub,2013-03-21 14:26:00,
2013-03-21 07:32:00,42.4,40.3,30.12,NNW,332,0.0,1.0,92,0.00,,,0.00,meteohub,2013-03-21 14:32:00,
2013-03-21 07:37:00,42.4,40.6,30.11,NNW,333,1.0,2.0,93,0.00,,,0.00,meteohub,2013-03-21 14:37:00,
2013-03-21 07:42:00,42.6,40.8,30.12,NNW,333,0.0,2.0,93,0.00,,,0.00,meteohub,2013-03-21 14:42:00,
2013-03-21 07:47:00,43.0,41.2,30.12,NNW,333,0.0,2.0,93,0.00,,,0.00,meteohub,2013-03-21 14:47:00,
2013-03-21 07:52:00,43.3,41.5,30.12,NNW,333,0.0,1.0,93,0.00,,,0.00,meteohub,2013-03-21 14:52:00,
2013-03-21 07:57:00,43.5,41.7,30.12,NNW,333,0.0,1.0,93,0.00,,,0.00,meteohub,2013-03-21 14:57:00,
2013-03-21 08:02:00,43.9,41.7,30.12,NNW,333,0.0,1.0,92,0.00,,,0.00,meteohub,2013-03-21 15:02:00,
2013-03-21 08:07:00,44.2,42.1,30.12,NNW,333,0.0,1.0,92,0.00,,,0.00,meteohub,2013-03-21 15:07:00,
2013-03-21 08:12:00,44.8,42.3,30.12,NNW,333,0.0,1.0,91,0.00,,,0.00,meteohub,2013-03-21 15:12:00,
2013-03-21 08:17:00,45.3,43.2,30.12,NNW,333,0.0,1.0,92,0.00,,,0.00,meteohub,2013-03-21 15:17:00,
2013-03-21 08:22:00,46.2,43.2,30.12,SE,134,1.0,0.0,89,0.00,,,0.00,meteohub,2013-03-21 15:22:00,
2013-03-21 08:27:00,47.1,43.2,30.12,South,178,0.0,1.0,86,0.00,,,0.00,meteohub,2013-03-21 15:27:00,
2013-03-21 08:32:00,47.8,43.0,30.12,ESE,108,4.0,4.0,83,0.00,,,0.00,meteohub,2013-03-21 15:32:00,
2013-03-21 08:37:00,48.4,43.5,30.12,ENE,58,2.0,4.0,83,0.00,,,0.00,meteohub,2013-03-21 15:37:00,
2013-03-21 08:43:00,48.6,43.7,30.12,ESE,120,1.0,4.0,83,0.00,,,0.00,meteohub,2013-03-21 15:43:00,
2013-03-21 08:48:00,48.7,43.5,30.12,NNW,348,1.0,4.0,82,0.00,,,0.00,meteohub,2013-03-21 15:48:00,
2013-03-21 08:53:00,48.9,43.3,30.12,ENE,64,2.0,4.0,81,0.00,,,0.00,meteohub,2013-03-21 15:53:00,
2013-03-21 08:58:00,49.1,43.5,30.12,SE,134,1.0,5.0,81,0.00,,,0.00,meteohub,2013-03-21 15:58:00,
2013-03-21 09:03:00,49.5,43.2,30.12,ENE,72,2.0,5.0,79,0.00,,,0.00,meteohub,2013-03-21 16:03:00,
2013-03-21 09:08:00,49.6,43.3,30.12,ESE,106,2.0,5.0,79,0.00,,,0.00,meteohub,2013-03-21 16:08:00,
2013-03-21 09:14:00,49.8,43.0,30.12,East,96,1.0,6.0,77,0.00,,,0.00,meteohub,2013-03-21 16:14:00,
2013-03-21 09:19:00,50.4,43.3,30.13,ENE,74,1.0,6.0,77,0.00,,,0.00,meteohub,2013-03-21 16:19:00,
2013-03-21 09:24:00,50.4,43.3,30.13,NE,46,2.0,6.0,77,0.00,,,0.00,meteohub,2013-03-21 16:24:00,
2013-03-21 09:30:00,50.4,43.7,30.13,ESE,110,2.0,5.0,78,0.00,,,0.00,meteohub,2013-03-21 16:30:00,
2013-03-21 09:35:00,50.5,43.5,30.13,NE,37,3.0,5.0,77,0.00,,,0.00,meteohub,2013-03-21 16:35:00,
2013-03-21 09:40:00,50.7,43.5,30.13,NNW,338,1.0,5.0,76,0.00,,,0.00,meteohub,2013-03-21 16:40:00,
2013-03-21 09:45:00,51.3,43.5,30.12,WSW,255,0.0,6.0,75,0.00,,,0.00,meteohub,2013-03-21 16:45:00,
2013-03-21 09:50:00,51.4,44.1,30.12,SE,131,1.0,6.0,76,0.00,,,0.00,meteohub,2013-03-21 16:50:00,
2013-03-21 09:55:00,51.3,43.3,30.13,SE,132,0.0,3.0,74,0.00,,,0.00,meteohub,2013-03-21 16:55:00,
2013-03-21 10:00:00,51.3,43.5,30.12,North,359,1.0,3.0,75,0.00,,,0.00,meteohub,2013-03-21 17:00:00,
2013-03-21 10:06:00,51.3,43.5,30.13,East,86,1.0,5.0,75,0.00,,,0.00,meteohub,2013-03-21 17:06:00,
2013-03-21 10:11:00,51.6,43.5,30.13,East,92,1.0,5.0,74,0.00,,,0.00,meteohub,2013-03-21 17:11:00,
2013-03-21 10:16:00,52.2,43.3,30.13,NNW,338,2.0,5.0,72,0.00,,,0.00,meteohub,2013-03-21 17:16:00,
2013-03-21 10:21:00,51.8,43.3,30.13,NNE,13,1.0,3.0,73,0.00,,,0.00,meteohub,2013-03-21 17:21:00,
2013-03-21 10:27:00,52.5,44.4,30.13,ENE,76,1.0,3.0,74,0.00,,,0.00,meteohub,2013-03-21 17:27:00,
2013-03-21 10:32:00,53.4,43.5,30.13,ESE,110,0.0,4.0,69,0.00,,,0.00,meteohub,2013-03-21 17:32:00,
2013-03-21 10:37:00,54.0,43.7,30.13,NNE,25,1.0,4.0,68,0.00,,,0.00,meteohub,2013-03-21 17:37:00,
2013-03-21 10:43:00,53.6,44.1,30.13,NW,319,2.0,4.0,70,0.00,,,0.00,meteohub,2013-03-21 17:43:00,
2013-03-21 10:48:00,53.2,45.9,30.14,NNW,342,3.0,5.0,76,0.00,,,0.00,meteohub,2013-03-21 17:48:00,
2013-03-21 10:54:00,53.2,44.8,30.13,NNW,332,3.0,6.0,73,0.00,,,0.00,meteohub,2013-03-21 17:54:00,
2013-03-21 10:59:00,53.4,45.0,30.13,NNW,338,3.0,6.0,73,0.00,,,0.00,meteohub,2013-03-21 17:59:00,
2013-03-21 11:04:00,53.6,44.4,30.13,NNW,333,2.0,6.0,71,0.00,,,0.00,meteohub,2013-03-21 18:04:00,
2013-03-21 11:09:00,53.4,43.9,30.13,North,9,2.0,5.0,70,0.00,,,0.00,meteohub,2013-03-21 18:09:00,
2013-03-21 11:15:00,54.0,44.8,30.13,NNW,342,4.0,7.0,71,0.00,,,0.00,meteohub,2013-03-21 18:15:00,
2013-03-21 11:20:00,54.3,44.8,30.13,NW,326,4.0,7.0,70,0.00,,,0.00,meteohub,2013-03-21 18:20:00,
2013-03-21 11:25:00,54.5,45.0,30.13,NNW,346,2.0,7.0,70,0.00,,,0.00,meteohub,2013-03-21 18:25:00,
2013-03-21 11:30:00,54.3,43.5,30.13,NNW,330,1.0,9.0,67,0.00,,,0.00,meteohub,2013-03-21 18:30:00,
2013-03-21 11:35:00,55.0,43.9,30.13,NNW,348,1.0,7.0,66,0.00,,,0.00,meteohub,2013-03-21 18:35:00,
2013-03-21 11:40:00,55.2,44.4,30.14,NE,46,2.0,8.0,67,0.00,,,0.00,meteohub,2013-03-21 18:40:00,
2013-03-21 11:45:00,55.0,44.2,30.13,NNW,346,3.0,8.0,67,0.00,,,0.00,meteohub,2013-03-21 18:45:00,
2013-03-21 11:51:00,55.2,45.1,30.13,NW,326,4.0,8.0,69,0.00,,,0.00,meteohub,2013-03-21 18:51:00,
2013-03-21 11:56:00,55.6,45.5,30.13,North,0,3.0,7.0,69,0.00,,,0.00,meteohub,2013-03-21 18:56:00,
2013-03-21 12:01:00,55.6,46.0,30.13,NW,309,5.0,7.0,70,0.00,,,0.00,meteohub,2013-03-21 19:01:00,
2013-03-21 12:07:00,55.9,45.9,30.13,North,6,3.0,6.0,69,0.00,,,0.00,meteohub,2013-03-21 19:07:00,
2013-03-21 12:12:00,56.5,46.0,30.12,NNW,328,3.0,6.0,68,0.00,,,0.00,meteohub,2013-03-21 19:12:00,
2013-03-21 12:17:00,56.8,46.4,30.13,NW,322,4.0,6.0,68,0.00,,,0.00,meteohub,2013-03-21 19:17:00,
2013-03-21 12:22:00,56.8,45.7,30.12,NNW,333,4.0,6.0,66,0.00,,,0.00,meteohub,2013-03-21 19:22:00,
2013-03-21 12:27:00,55.9,44.8,30.12,NNW,338,3.0,11.0,66,0.00,,,0.00,meteohub,2013-03-21 19:27:00,
2013-03-21 12:33:00,56.1,45.3,30.12,NW,319,5.0,11.0,67,0.00,,,0.00,meteohub,2013-03-21 19:33:00,
2013-03-21 12:38:00,56.1,45.3,30.12,NNW,344,5.0,11.0,67,0.00,,,0.00,meteohub,2013-03-21 19:38:00,
2013-03-21 12:44:00,56.1,45.3,30.12,NNW,347,8.0,9.0,67,0.00,,,0.00,meteohub,2013-03-21 19:44:00,
2013-03-21 12:49:00,55.9,45.5,30.12,NNE,13,8.0,9.0,68,0.00,,,0.00,meteohub,2013-03-21 19:49:00,
2013-03-21 12:54:00,55.9,45.1,30.12,NNW,332,2.0,9.0,67,0.00,,,0.00,meteohub,2013-03-21 19:54:00,
2013-03-21 12:59:00,55.9,45.5,30.12,North,354,3.0,9.0,68,0.00,,,0.00,meteohub,2013-03-21 19:59:00,
2013-03-21 13:04:00,56.5,45.7,30.12,NNW,347,3.0,11.0,67,0.00,,,0.00,meteohub,2013-03-21 20:04:00,
2013-03-21 13:09:00,56.1,45.3,30.11,NNE,32,5.0,11.0,67,0.00,,,0.00,meteohub,2013-03-21 20:09:00,
2013-03-21 13:14:00,56.7,45.9,30.12,NNE,20,2.0,12.0,67,0.00,,,0.00,meteohub,2013-03-21 20:14:00,
2013-03-21 13:20:00,56.7,45.5,30.11,NNE,32,3.0,12.0,66,0.00,,,0.00,meteohub,2013-03-21 20:20:00,
2013-03-21 13:25:00,57.6,45.5,30.11,NNE,18,7.0,12.0,64,0.00,,,0.00,meteohub,2013-03-21 20:25:00,
2013-03-21 13:30:00,57.4,45.3,30.11,NNE,13,5.0,11.0,64,0.00,,,0.00,meteohub,2013-03-21 20:30:00,
2013-03-21 13:35:00,57.0,45.0,30.11,NNW,342,3.0,11.0,64,0.00,,,0.00,meteohub,2013-03-21 20:35:00,
2013-03-21 13:40:00,57.4,45.7,30.11,NW,321,4.0,11.0,65,0.00,,,0.00,meteohub,2013-03-21 20:40:00,
2013-03-21 13:46:00,57.6,45.5,30.10,NNE,26,2.0,11.0,64,0.00,,,0.00,meteohub,2013-03-21 20:46:00,
2013-03-21 13:51:00,57.7,45.3,30.10,NNW,334,3.0,10.0,63,0.00,,,0.00,meteohub,2013-03-21 20:51:00,
2013-03-21 13:56:00,58.3,46.2,30.09,WSW,250,3.0,10.0,64,0.00,,,0.00,meteohub,2013-03-21 20:56:00,
2013-03-21 14:02:00,58.3,45.0,30.09,NNW,342,4.0,10.0,61,0.00,,,0.00,meteohub,2013-03-21 21:02:00,
2013-03-21 14:07:00,57.9,45.0,30.09,NW,315,3.0,10.0,62,0.00,,,0.00,meteohub,2013-03-21 21:07:00,
2013-03-21 14:12:00,58.1,45.1,30.09,North,350,8.0,10.0,62,0.00,,,0.00,meteohub,2013-03-21 21:12:00,
2013-03-21 14:17:00,58.3,45.3,30.09,NE,43,2.0,15.0,62,0.00,,,0.00,meteohub,2013-03-21 21:17:00,
2013-03-21 14:22:00,58.8,45.9,30.09,NW,312,2.0,15.0,62,0.00,,,0.00,meteohub,2013-03-21 21:22:00,
2013-03-21 14:28:00,58.8,45.3,30.08,NNW,340,4.0,11.0,61,0.00,,,0.00,meteohub,2013-03-21 21:28:00,
2013-03-21 14:33:00,58.8,45.3,30.08,NW,324,4.0,9.0,61,0.00,,,0.00,meteohub,2013-03-21 21:33:00,
2013-03-21 14:38:00,59.4,45.5,30.08,ENE,60,2.0,9.0,60,0.00,,,0.00,meteohub,2013-03-21 21:38:00,
2013-03-21 14:43:00,58.8,45.0,30.08,NE,54,4.0,9.0,60,0.00,,,0.00,meteohub,2013-03-21 21:43:00,
2013-03-21 14:49:00,58.3,45.0,30.08,North,1,6.0,13.0,61,0.00,,,0.00,meteohub,2013-03-21 21:49:00,
2013-03-21 14:54:00,58.3,45.7,30.07,NNW,347,3.0,13.0,63,0.00,,,0.00,meteohub,2013-03-21 21:54:00,
2013-03-21 14:59:00,58.3,45.7,30.07,NNW,338,7.0,13.0,63,0.00,,,0.00,meteohub,2013-03-21 21:59:00,
2013-03-21 15:05:00,57.6,45.5,30.07,NNE,24,8.0,11.0,64,0.00,,,0.00,meteohub,2013-03-21 22:05:00,
2013-03-21 15:10:00,57.7,45.7,30.06,NNE,27,3.0,15.0,64,0.00,,,0.00,meteohub,2013-03-21 22:10:00,
2013-03-21 15:15:00,58.5,46.4,30.06,NW,326,8.0,15.0,64,0.00,,,0.00,meteohub,2013-03-21 22:15:00,
2013-03-21 15:21:00,57.7,45.7,30.06,NE,41,7.0,13.0,64,0.00,,,0.00,meteohub,2013-03-21 22:21:00,
2013-03-21 15:26:00,57.7,46.4,30.06,North,349,5.0,14.0,66,0.00,,,0.00,meteohub,2013-03-21 22:26:00,
2013-03-21 15:32:00,58.6,46.6,30.06,North,11,8.0,14.0,64,0.00,,,0.00,meteohub,2013-03-21 22:32:00,
2013-03-21 15:37:00,58.6,46.0,30.06,NNE,25,4.0,12.0,63,0.00,,,0.00,meteohub,2013-03-21 22:37:00,
2013-03-21 15:42:00,59.2,46.6,30.06,NNE,15,7.0,12.0,63,0.00,,,0.00,meteohub,2013-03-21 22:42:00,
2013-03-21 15:47:00,58.5,45.5,30.06,WNW,302,2.0,12.0,62,0.00,,,0.00,meteohub,2013-03-21 22:47:00,
2013-03-21 15:52:00,58.8,46.6,30.05,NNW,340,5.0,12.0,64,0.00,,,0.00,meteohub,2013-03-21 22:52:00,
2013-03-21 15:57:00,58.5,46.4,30.05,NNW,335,4.0,12.0,64,0.00,,,0.00,meteohub,2013-03-21 22:57:00,
2013-03-21 16:02:00,58.3,46.6,30.05,NW,312,4.0,13.0,65,0.00,,,0.00,meteohub,2013-03-21 23:02:00,
2013-03-21 16:07:00,58.5,46.8,30.04,SW,231,3.0,13.0,65,0.00,,,0.00,meteohub,2013-03-21 23:07:00,
2013-03-21 16:12:00,58.5,46.4,30.05,North,1,8.0,13.0,64,0.00,,,0.00,meteohub,2013-03-21 23:12:00,
2013-03-21 16:17:00,57.7,46.4,30.05,NNW,347,8.0,12.0,66,0.00,,,0.00,meteohub,2013-03-21 23:17:00,
2013-03-21 16:22:00,57.7,46.9,30.05,NNE,20,6.0,12.0,67,0.00,,,0.00,meteohub,2013-03-21 23:22:00,
2013-03-21 16:28:00,57.9,46.2,30.05,North,5,9.0,17.0,65,0.00,,,0.00,meteohub,2013-03-21 23:28:00,
2013-03-21 16:33:00,57.6,46.8,30.04,NW,324,4.0,17.0,67,0.00,,,0.00,meteohub,2013-03-21 23:33:00,
2013-03-21 16:38:00,57.4,46.6,30.04,NW,318,5.0,13.0,67,0.00,,,0.00,meteohub,2013-03-21 23:38:00,
2013-03-21 16:44:00,57.6,46.2,30.04,North,5,4.0,13.0,66,0.00,,,0.00,meteohub,2013-03-21 23:44:00,
2013-03-21 16:49:00,57.9,46.6,30.04,WSW,257,6.0,13.0,66,0.00,,,0.00,meteohub,2013-03-21 23:49:00,
2013-03-21 16:54:00,57.6,46.8,30.04,WNW,297,2.0,13.0,67,0.00,,,0.00,meteohub,2013-03-21 23:54:00,
2013-03-21 16:59:00,57.6,46.2,30.04,North,9,8.0,11.0,66,0.00,,,0.00,meteohub,2013-03-21 23:59:00,
2013-03-21 17:05:00,57.7,46.9,30.04,NNE,19,7.0,11.0,67,0.00,,,0.00,meteohub,2013-03-22 00:05:00,
2013-03-21 17:10:00,57.6,46.8,30.03,North,1,2.0,9.0,67,0.00,,,0.00,meteohub,2013-03-22 00:10:00,
2013-03-21 17:15:00,57.6,46.8,30.04,North,352,6.0,9.0,67,0.00,,,0.00,meteohub,2013-03-22 00:15:00,
2013-03-21 17:20:00,57.2,46.4,30.04,North,0,3.0,8.0,67,0.00,,,0.00,meteohub,2013-03-22 00:20:00,
2013-03-21 17:26:00,57.4,46.6,30.04,North,4,9.0,10.0,67,0.00,,,0.00,meteohub,2013-03-22 00:26:00,
2013-03-21 17:31:00,57.0,46.2,30.03,NW,317,4.0,11.0,67,0.00,,,0.00,meteohub,2013-03-22 00:31:00,
2013-03-21 17:36:00,56.8,46.4,30.03,NNW,330,5.0,11.0,68,0.00,,,0.00,meteohub,2013-03-22 00:36:00,
2013-03-21 17:41:00,56.7,46.2,30.03,WNW,290,4.0,13.0,68,0.00,,,0.00,meteohub,2013-03-22 00:41:00,
2013-03-21 17:46:00,56.7,46.6,30.03,NNW,346,5.0,13.0,69,0.00,,,0.00,meteohub,2013-03-22 00:46:00,
2013-03-21 17:52:00,56.7,46.6,30.03,North,5,5.0,13.0,69,0.00,,,0.00,meteohub,2013-03-22 00:52:00,
2013-03-21 17:57:00,56.5,46.4,30.03,NNW,336,5.0,13.0,69,0.00,,,0.00,meteohub,2013-03-22 00:57:00,
2013-03-21 18:02:00,56.3,46.6,30.03,NE,43,2.0,11.0,70,0.00,,,0.00,meteohub,2013-03-22 01:02:00,
2013-03-21 18:07:00,55.9,46.2,30.02,NNE,25,2.0,11.0,70,0.00,,,0.00,meteohub,2013-03-22 01:07:00,
2013-03-21 18:12:00,55.4,46.2,30.02,NE,50,4.0,10.0,71,0.00,,,0.00,meteohub,2013-03-22 01:12:00,
2013-03-21 18:17:00,55.0,46.2,30.02,North,356,2.0,10.0,72,0.00,,,0.00,meteohub,2013-03-22 01:17:00,
2013-03-21 18:23:00,54.5,46.0,30.02,NW,305,6.0,10.0,73,0.00,,,0.00,meteohub,2013-03-22 01:23:00,
2013-03-21 18:28:00,54.1,46.0,30.02,NNE,16,7.0,10.0,74,0.00,,,0.00,meteohub,2013-03-22 01:28:00,
2013-03-21 18:33:00,53.8,46.0,30.02,NE,49,3.0,10.0,75,0.00,,,0.00,meteohub,2013-03-22 01:33:00,
2013-03-21 18:38:00,53.6,46.2,30.02,NNW,329,5.0,10.0,76,0.00,,,0.00,meteohub,2013-03-22 01:38:00,
2013-03-21 18:43:00,53.4,46.0,30.02,NNE,22,6.0,12.0,76,0.00,,,0.00,meteohub,2013-03-22 01:43:00,
2013-03-21 18:49:00,53.2,45.9,30.02,NNE,33,3.0,12.0,76,0.00,,,0.00,meteohub,2013-03-22 01:49:00,
2013-03-21 18:54:00,53.1,45.7,30.02,NNE,19,7.0,12.0,76,0.00,,,0.00,meteohub,2013-03-22 01:54:00,
2013-03-21 18:59:00,53.1,46.0,30.02,NW,305,4.0,12.0,77,0.00,,,0.00,meteohub,2013-03-22 01:59:00,
2013-03-21 19:04:00,53.1,45.7,30.02,North,358,6.0,12.0,76,0.00,,,0.00,meteohub,2013-03-22 02:04:00,
2013-03-21 19:09:00,53.1,46.0,30.02,NNW,340,7.0,12.0,77,0.00,,,0.00,meteohub,2013-03-22 02:09:00,
2013-03-21 19:15:00,52.9,45.9,30.02,North,9,5.0,11.0,77,0.00,,,0.00,meteohub,2013-03-22 02:15:00,
2013-03-21 19:20:00,52.7,45.7,30.02,NNW,345,4.0,13.0,77,0.00,,,0.00,meteohub,2013-03-22 02:20:00,
2013-03-21 19:25:00,52.5,45.1,30.02,NNE,18,6.0,13.0,76,0.00,,,0.00,meteohub,2013-03-22 02:25:00,
2013-03-21 19:30:00,52.5,45.1,30.02,NNW,342,5.0,13.0,76,0.00,,,0.00,meteohub,2013-03-22 02:30:00,
2013-03-21 19:35:00,52.5,45.1,30.02,NNE,18,5.0,9.0,76,0.00,,,0.00,meteohub,2013-03-22 02:35:00,
2013-03-21 19:40:00,52.5,45.1,30.02,NW,324,5.0,9.0,76,0.00,,,0.00,meteohub,2013-03-22 02:40:00,
2013-03-21 19:45:00,52.3,45.0,30.02,North,354,6.0,10.0,76,0.00,,,0.00,meteohub,2013-03-22 02:45:00,
2013-03-21 19:51:00,52.3,45.3,30.02,North,352,3.0,10.0,77,0.00,,,0.00,meteohub,2013-03-22 02:51:00,
2013-03-21 19:57:00,52.2,45.1,30.02,North,356,6.0,10.0,77,0.00,,,0.00,meteohub,2013-03-22 02:57:00,
2013-03-21 20:02:00,52.0,45.0,30.03,NNW,347,7.0,9.0,77,0.00,,,0.00,meteohub,2013-03-22 03:02:00,
2013-03-21 20:07:00,52.0,45.0,30.03,NNW,332,2.0,10.0,77,0.00,,,0.00,meteohub,2013-03-22 03:07:00,
2013-03-21 20:12:00,51.6,45.0,30.02,WSW,240,0.0,10.0,78,0.00,,,0.00,meteohub,2013-03-22 03:12:00,
2013-03-21 20:17:00,51.4,45.1,30.03,SE,127,0.0,10.0,79,0.00,,,0.00,meteohub,2013-03-22 03:17:00,
2013-03-21 20:22:00,51.4,45.1,30.03,North,349,1.0,5.0,79,0.00,,,0.00,meteohub,2013-03-22 03:22:00,
2013-03-21 20:28:00,51.1,45.1,30.03,NNW,335,1.0,5.0,80,0.00,,,0.00,meteohub,2013-03-22 03:28:00,
2013-03-21 20:33:00,50.9,45.0,30.03,NW,314,2.0,4.0,80,0.00,,,0.00,meteohub,2013-03-22 03:33:00,
2013-03-21 20:38:00,50.7,44.8,30.03,NNW,338,3.0,4.0,80,0.00,,,0.00,meteohub,2013-03-22 03:38:00,
2013-03-21 20:43:00,50.7,44.8,30.03,NW,321,0.0,5.0,80,0.00,,,0.00,meteohub,2013-03-22 03:43:00,
2013-03-21 20:48:00,50.5,44.6,30.03,WNW,293,1.0,5.0,80,0.00,,,0.00,meteohub,2013-03-22 03:48:00,
2013-03-21 20:54:00,50.5,45.0,30.03,WNW,290,1.0,4.0,81,0.00,,,0.00,meteohub,2013-03-22 03:54:00,
2013-03-21 20:59:00,50.4,45.1,30.03,NNW,336,1.0,4.0,82,0.00,,,0.00,meteohub,2013-03-22 03:59:00,
2013-03-21 21:00:00,50.4,45.1,30.03,NE,53,1.0,4.0,82,0.00,,,0.00,meteohub,2013-03-22 04:00:00,
2013-03-21 21:03:00,50.4,45.1,30.03,SSW,205,1.0,3.0,82,0.00,,,0.00,meteohub,2013-03-22 04:03:00,
2013-03-21 21:05:00,50.2,45.0,30.03,WNW,300,0.0,3.0,82,0.00,,,0.00,meteohub,2013-03-22 04:05:00,
2013-03-21 21:11:00,50.2,44.6,30.04,North,358,2.0,4.0,81,0.00,,,0.00,meteohub,2013-03-22 04:11:00,
2013-03-21 21:17:00,50.2,44.6,30.04,NW,322,1.0,4.0,81,0.00,,,0.00,meteohub,2013-03-22 04:17:00,
2013-03-21 21:22:00,50.2,44.6,30.04,NW,314,0.0,5.0,81,0.00,,,0.00,meteohub,2013-03-22 04:22:00,
2013-03-21 21:27:00,50.2,44.6,30.04,ESE,108,0.0,5.0,81,0.00,,,0.00,meteohub,2013-03-22 04:27:00,
2013-03-21 21:32:00,50.2,44.6,30.04,ENE,68,1.0,4.0,81,0.00,,,0.00,meteohub,2013-03-22 04:32:00,
2013-03-21 21:37:00,50.2,45.0,30.04,North,356,1.0,3.0,82,0.00,,,0.00,meteohub,2013-03-22 04:37:00,
2013-03-21 21:42:00,50.2,45.0,30.04,WNW,286,1.0,3.0,82,0.00,,,0.00,meteohub,2013-03-22 04:42:00,
2013-03-21 21:47:00,50.2,45.0,30.04,North,354,1.0,3.0,82,0.00,,,0.00,meteohub,2013-03-22 04:47:00,
2013-03-21 21:53:00,50.0,44.8,30.04,ESE,120,1.0,4.0,82,0.00,,,0.00,meteohub,2013-03-22 04:53:00,
2013-03-21 21:58:00,49.8,44.8,30.04,West,280,1.0,4.0,83,0.00,,,0.00,meteohub,2013-03-22 04:58:00,
2013-03-21 22:03:00,49.8,44.8,30.04,NW,316,1.0,3.0,83,0.00,,,0.00,meteohub,2013-03-22 05:03:00,
2013-03-21 22:08:00,49.8,44.8,30.05,North,3,0.0,3.0,83,0.00,,,0.00,meteohub,2013-03-22 05:08:00,
2013-03-21 22:13:00,49.6,44.8,30.05,NNE,15,0.0,3.0,83,0.00,,,0.00,meteohub,2013-03-22 05:13:00,
2013-03-21 22:19:00,49.6,44.8,30.05,North,1,0.0,3.0,83,0.00,,,0.00,meteohub,2013-03-22 05:19:00,
2013-03-21 22:24:00,49.5,44.8,30.05,South,188,0.0,3.0,84,0.00,,,0.00,meteohub,2013-03-22 05:24:00,
2013-03-21 22:29:00,49.5,44.8,30.05,WSW,252,1.0,2.0,84,0.00,,,0.00,meteohub,2013-03-22 05:29:00,
2013-03-21 22:34:00,49.5,44.8,30.05,West,264,1.0,3.0,84,0.00,,,0.00,meteohub,2013-03-22 05:34:00,
2013-03-21 22:39:00,49.3,44.6,30.06,WNW,295,0.0,3.0,84,0.00,,,0.00,meteohub,2013-03-22 05:39:00,
2013-03-21 22:45:00,49.1,44.4,30.05,NE,47,1.0,3.0,84,0.00,,,0.00,meteohub,2013-03-22 05:45:00,
2013-03-21 22:50:00,48.9,44.6,30.05,NNW,340,1.0,3.0,85,0.00,,,0.00,meteohub,2013-03-22 05:50:00,
2013-03-21 22:55:00,49.1,44.8,30.06,NW,304,1.0,2.0,85,0.00,,,0.00,meteohub,2013-03-22 05:55:00,
2013-03-21 23:01:00,49.1,44.8,30.06,North,11,0.0,2.0,85,0.00,,,0.00,meteohub,2013-03-22 06:01:00,
2013-03-21 23:06:00,48.9,44.6,30.05,NNW,332,0.0,2.0,85,0.00,,,0.00,meteohub,2013-03-22 06:06:00,
2013-03-21 23:12:00,48.9,44.6,30.05,North,11,2.0,2.0,85,0.00,,,0.00,meteohub,2013-03-22 06:12:00,
2013-03-21 23:17:00,48.9,44.6,30.05,NNW,340,0.0,4.0,85,0.00,,,0.00,meteohub,2013-03-22 06:17:00,
2013-03-21 23:22:00,48.9,44.6,30.05,SW,235,0.0,4.0,85,0.00,,,0.00,meteohub,2013-03-22 06:22:00,
2013-03-21 23:27:00,48.9,44.6,30.05,North,358,0.0,4.0,85,0.00,,,0.00,meteohub,2013-03-22 06:27:00,
2013-03-21 23:33:00,48.9,44.6,30.05,NW,309,0.0,2.0,85,0.00,,,0.00,meteohub,2013-03-22 06:33:00,
2013-03-21 23:38:00,48.9,44.6,30.05,NNE,23,1.0,2.0,85,0.00,,,0.00,meteohub,2013-03-22 06:38:00,
2013-03-21 23:43:00,48.7,44.4,30.05,NNW,345,0.0,2.0,85,0.00,,,0.00,meteohub,2013-03-22 06:43:00,
2013-03-21 23:48:00,48.7,44.4,30.05,North,9,2.0,2.0,85,0.00,,,0.00,meteohub,2013-03-22 06:48:00,
2013-03-21 23:54:00,48.4,44.4,30.05,North,350,1.0,2.0,86,0.00,,,0.00,meteohub,2013-03-22 06:54:00,
2013-03-21 23:59:00,48.4,44.8,30.05,WNW,301,0.0,2.0,87,0.00,,,0.00,meteohub,2013-03-22 06:59:00,